QPF
0.02 0.02 0.02 0.03 0.04 0.02 0.00 0.00 0.00 0.00 0.00 0.00 0.00 0.00 0.00 0.00 0.00 0.00 0.00 0.00 0.00 0.00 0.01 0.01 0.00 0.00 0.00 0.00 0.00 0.01 0.00 0.00 0.01 0.03 0.08 0.14 0.18 0.21
0.01 0.01 0.01 0.01 0.02 0.03 0.01 0.01 0.00 0.00 0.00 0.00 0.00 0.00 0.00 0.00 0.00 0.00 0.00 0.00 0.00 0.00 0.00 0.01 0.01 0.00 0.00 0.00 0.00 0.00 0.00 0.00 0.00 0.02 0.13 0.34 0.42 0.37
0.02 0.02 0.02 0.01 0.01 0.02 0.03 0.02 0.02 0.01 0.00 0.00 0.00 0.00 0.00 0.00 0.00 0.00 0.00 0.00 0.00 0.00 0.00 0.01 0.01 0.01 0.00 0.00 0.00 0.00 0.00 0.00 0.00 0.02 0.07 0.21 0.48 0.55
0.04 0.02 0.02 0.02 0.02 0.02 0.03 0.04 0.04 0.04 0.02 0.01 0.00 0.00 0.00 0.00 0.00 0.00 0.00 0.00 0.00 0.00 0.00 0.00 0.01 0.01 0.00 0.00 0.00 0.00 0.00 0.00 0.00 0.01 0.02 0.04 0.11 0.23
0.06 0.04 0.03 0.02 0.01 0.03 0.06 0.06 0.07 0.07 0.04 0.03 0.02 0.00 0.00 0.00 0.00 0.00 0.00 0.00 0.00 0.00 0.00 0.00 0.00 0.00 0.00 0.00 0.00 0.00 0.00 0.00 0.00 0.00 0.00 0.01 0.01 0.03
0.08 0.05 0.03 0.02 0.02 0.04 0.08 0.12 0.12 0.09 0.06 0.04 0.03 0.01 0.00 0.00 0.00 0.00 0.00 0.00 0.00 0.00 0.00 0.00 0.00 0.00 0.00 0.00 0.00 0.00 0.00 0.00 0.00 0.00 0.00 0.00 0.00 0.00
0.11 0.06 0.04 0.05 0.05 0.05 0.06 0.09 0.13 0.10 0.06 0.04 0.03 0.01 0.00 0.00 0.00 0.00 0.00 0.00 0.00 0.00 0.00 0.00 0.00 0.00 0.00 0.00 0.00 0.00 0.00 0.00 0.00 0.00 0.00 0.00 0.00 0.00
0.04 0.04 0.07 0.10 0.08 0.04 0.04 0.06 0.08 0.08 0.07 0.06 0.04 0.01 0.00 0.00 0.00 0.00 0.00 0.00 0.00 0.00 0.00 0.00 0.00 0.00 0.00 0.00 0.00 0.00 0.00 0.00 0.00 0.00 0.00 0.00 0.00 0.00
0.04 0.04 0.07 0.09 0.11 0.06 0.03 0.03 0.04 0.04 0.06 0.07 0.05 0.02 0.01 0.00 0.00 0.00 0.00 0.00 0.00 0.00 0.00 0.00 0.00 0.00 0.00 0.00 0.00 0.00 0.00 0.00 0.00 0.00 0.00 0.00 0.00 0.00
0.08 0.07 0.08 0.06 0.06 0.07 0.07 0.05 0.04 0.04 0.04 0.03 0.04 0.05 0.04 0.02 0.00 0.00 0.00 0.00 0.00 0.00 0.00 0.00 0.00 0.00 0.00 0.00 0.00 0.00 0.00 0.00 0.00 0.00 0.00 0.00 0.00 0.00
0.09 0.06 0.04 0.03 0.04 0.05 0.10 0.13 0.08 0.06 0.10 0.10 0.08 0.06 0.04 0.02 0.00 0.00 0.00 0.00 0.00 0.00 0.00 0.00 0.00 0.00 0.00 0.00 0.00 0.00 0.00 0.00 0.00 0.00 0.00 0.00 0.00 0.00
0.07 0.09 0.09 0.06 0.06 0.06 0.06 0.10 0.12 0.12 0.11 0.13 0.12 0.08 0.03 0.01 0.00 0.00 0.00 0.00 0.00 0.00 0.00 0.00 0.00 0.00 0.00 0.00 0.00 0.00 0.00 0.00 0.00 0.00 0.00 0.00 0.00 0.00
0.06 0.13 0.16 0.11 0.08 0.07 0.06 0.06 0.07 0.12 0.16 0.15 0.17 0.13 0.07 0.02 0.01 0.00 0.00 0.00 0.00 0.00 0.00 0.00 0.00 0.00 0.00 0.00 0.00 0.00 0.00 0.00 0.00 0.00 0.00 0.00 0.00 0.00
0.02 0.05 0.07 0.08 0.07 0.06 0.05 0.04 0.02 0.02 0.04 0.08 0.09 0.08 0.07 0.06 0.04 0.03 0.02 0.01 0.00 0.00 0.00 0.00 0.00 0.00 0.00 0.00 0.00 0.00 0.00 0.00 0.00 0.00 0.00 0.00 0.00 0.00
0.01 0.01 0.02 0.02 0.02 0.02 0.03 0.03 0.02 0.01 0.01 0.03 0.04 0.05 0.06 0.08 0.08 0.07 0.04 0.01 0.00 0.00 0.00 0.00 0.00 0.00 0.00 0.00 0.00 0.00 0.00 0.00 0.00 0.00 0.00 0.00 0.00 0.00
0.00 0.00 0.00 0.01 0.01 0.01 0.01 0.01 0.01 0.00 0.00 0.01 0.02 0.05 0.06 0.06 0.07 0.07 0.06 0.04 0.01 0.00 0.00 0.00 0.00 0.00 0.00 0.00 0.00 0.00 0.00 0.00 0.00 0.00 0.00 0.00 0.00 0.00
0.00 0.00 0.00 0.00 0.00 0.00 0.00 0.00 0.00 0.00 0.01 0.01 0.01 0.03 0.05 0.07 0.09 0.08 0.07 0.06 0.05 0.02 0.00 0.00 0.00 0.00 0.00 0.00 0.00 0.00 0.00 0.00 0.00 0.00 0.00 0.00 0.00 0.00
0.00 0.00 0.00 0.00 0.00 0.00 0.00 0.00 0.00 0.00 0.02 0.04 0.06 0.07 0.08 0.09 0.10 0.11 0.09 0.08 0.07 0.06 0.03 0.01 0.00 0.00 0.00 0.00 0.00 0.00 0.00 0.00 0.00 0.00 0.00 0.00 0.00 0.00
0.01 0.01 0.01 0.00 0.00 0.00 0.00 0.00 0.00 0.00 0.01 0.04 0.14 0.20 0.18 0.19 0.22 0.24 0.23 0.19 0.15 0.12 0.09 0.04 0.01 0.00 0.00 0.00 0.00 0.00 0.00 0.00 0.00 0.00 0.00 0.00 0.00 0.00
0.01 0.01 0.00 0.00 0.00 0.00 0.00 0.00 0.00 0.01 0.01 0.01 0.05 0.12 0.22 0.27 0.33 0.35 0.38 0.39 0.35 0.27 0.18 0.09 0.02 0.00 0.00 0.00 0.00 0.00 0.00 0.00 0.00 0.00 0.00 0.00 0.00 0.00
0.00 0.00 0.00 0.00 0.00 0.00 0.00 0.00 0.00 0.00 0.00 0.01 0.01 0.04 0.09 0.17 0.28 0.35 0.37 0.39 0.36 0.28 0.19 0.12 0.05 0.01 0.00 0.00 0.00 0.00 0.00 0.00 0.00 0.00 0.00 0.00 0.00 0.00
0.00 0.00 0.00 0.00 0.00 0.00 0.00 0.00 0.00 0.00 0.00 0.02 0.05 0.08 0.12 0.14 0.14 0.20 0.25 0.24 0.20 0.15 0.12 0.08 0.04 0.01 0.00 0.00 0.00 0.00 0.00 0.00 0.00 0.00 0.00 0.00 0.00 0.00
0.00 0.00 0.00 0.00 0.00 0.00 0.00 0.00 0.00 0.00 0.00 0.01 0.03 0.08 0.13 0.18 0.17 0.14 0.13 0.12 0.11 0.10 0.08 0.05 0.03 0.02 0.01 0.00 0.00 0.00 0.00 0.00 0.00 0.00 0.00 0.00 0.00 0.00
MSLP
1015.95 1016.35 1016.80 1017.28 1017.76 1018.23 1018.66 1019.05 1019.40 1019.72 1020.03 1020.32 1020.59 1020.83 1021.02 1021.15 1021.19 1021.14 1021.00 1020.80 1020.55 1020.29 1020.03 1019.81 1019.61 1019.44 1019.27 1019.10 1018.90 1018.67 1018.42 1018.15 1017.88 1017.64 1017.44 1017.31 1017.23 1017.22
1015.54 1015.86 1016.23 1016.64 1017.07 1017.49 1017.91 1018.32 1018.72 1019.12 1019.51 1019.91 1020.28 1020.64 1020.93 1021.15 1021.28 1021.32 1021.26 1021.12 1020.94 1020.73 1020.52 1020.33 1020.15 1019.99 1019.83 1019.65 1019.44 1019.20 1018.93 1018.65 1018.36 1018.11 1017.90 1017.75 1017.67 1017.65
1015.09 1015.35 1015.66 1016.00 1016.38 1016.77 1017.18 1017.61 1018.05 1018.52 1018.99 1019.48 1019.96 1020.41 1020.81 1021.12 1021.34 1021.46 1021.48 1021.42 1021.30 1021.16 1021.00 1020.85 1020.71 1020.57 1020.42 1020.26 1020.06 1019.82 1019.55 1019.27 1018.98 1018.72 1018.51 1018.35 1018.26 1018.23
1014.60 1014.82 1015.08 1015.38 1015.72 1016.09 1016.50 1016.94 1017.41 1017.93 1018.47 1019.03 1019.60 1020.13 1020.61 1021.01 1021.32 1021.52 1021.62 1021.64 1021.60 1021.52 1021.42 1021.33 1021.23 1021.13 1021.02 1020.88 1020.70 1020.48 1020.23 1019.96 1019.69 1019.44 1019.22 1019.07 1018.97 1018.93
1014.10 1014.29 1014.52 1014.80 1015.11 1015.47 1015.86 1016.31 1016.80 1017.34 1017.92 1018.53 1019.15 1019.74 1020.29 1020.76 1021.14 1021.42 1021.61 1021.72 1021.76 1021.77 1021.74 1021.72 1021.68 1021.63 1021.56 1021.46 1021.31 1021.13 1020.91 1020.66 1020.42 1020.19 1020.00 1019.85 1019.76 1019.72
1013.59 1013.77 1013.99 1014.25 1014.55 1014.89 1015.27 1015.70 1016.19 1016.72 1017.31 1017.93 1018.57 1019.20 1019.79 1020.32 1020.77 1021.13 1021.41 1021.61 1021.75 1021.85 1021.92 1021.97 1022.00 1022.01 1021.99 1021.93 1021.84 1021.69 1021.51 1021.31 1021.11 1020.91 1020.75 1020.63 1020.56 1020.54
1013.10 1013.28 1013.49 1013.74 1014.02 1014.34 1014.70 1015.10 1015.55 1016.06 1016.62 1017.22 1017.84 1018.48 1019.09 1019.66 1020.18 1020.62 1021.00 1021.31 1021.56 1021.76 1021.93 1022.07 1022.17 1022.25 1022.28 1022.28 1022.22 1022.12 1022.00 1021.85 1021.69 1021.55 1021.43 1021.35 1021.32 1021.32
1012.65 1012.82 1013.03 1013.26 1013.52 1013.81 1014.13 1014.49 1014.89 1015.34 1015.85 1016.40 1016.99 1017.61 1018.23 1018.84 1019.41 1019.93 1020.41 1020.82 1021.19 1021.51 1021.78 1022.01 1022.19 1022.33 1022.42 1022.46 1022.46 1022.41 1022.33 1022.23 1022.14 1022.05 1021.99 1021.97 1021.97 1022.01
1012.23 1012.40 1012.60 1012.83 1013.07 1013.32 1013.59 1013.90 1014.23 1014.62 1015.05 1015.54 1016.09 1016.67 1017.29 1017.91 1018.53 1019.13 1019.70 1020.22 1020.70 1021.12 1021.49 1021.81 1022.07 1022.27 1022.41 1022.50 1022.53 1022.53 1022.50 1022.46 1022.42 1022.40 1022.41 1022.44 1022.49 1022.57
1011.88 1012.04 1012.23 1012.44 1012.66 1012.89 1013.12 1013.37 1013.64 1013.96 1014.32 1014.74 1015.22 1015.77 1016.36 1017.00 1017.65 1018.30 1018.95 1019.57 1020.14 1020.66 1021.12 1021.52 1021.84 1022.09 1022.28 1022.40 1022.47 1022.51 1022.52 1022.53 1022.56 1022.60 1022.67 1022.76 1022.87 1022.99
1011.58 1011.75 1011.94 1012.15 1012.35 1012.56 1012.76 1012.97 1013.18 1013.43 1013.73 1014.09 1014.51 1015.01 1015.58 1016.20 1016.86 1017.55 1018.25 1018.93 1019.57 1020.16 1020.69 1021.14 1021.52 1021.81 1022.03 1022.18 1022.29 1022.37 1022.43 1022.49 1022.57 1022.67 1022.79 1022.94 1023.09 1023.25
1011.37 1011.55 1011.75 1011.96 1012.17 1012.37 1012.55 1012.73 1012.91 1013.12 1013.36 1013.66 1014.02 1014.47 1014.99 1015.58 1016.23 1016.92 1017.63 1018.34 1019.02 1019.65 1020.22 1020.71 1021.11 1021.44 1021.69 1021.88 1022.02 1022.14 1022.24 1022.35 1022.47 1022.62 1022.79 1022.98 1023.17 1023.35
1011.24 1011.44 1011.66 1011.89 1012.12 1012.33 1012.52 1012.69 1012.85 1013.03 1013.22 1013.47 1013.78 1014.16 1014.62 1015.16 1015.77 1016.42 1017.11 1017.80 1018.48 1019.12 1019.70 1020.21 1020.64 1020.99 1021.27 1021.49 1021.67 1021.82 1021.97 1022.12 1022.29 1022.47 1022.67 1022.89 1023.09 1023.28
1011.20 1011.43 1011.68 1011.94 1012.20 1012.43 1012.63 1012.81 1012.97 1013.12 1013.29 1013.48 1013.73 1014.05 1014.43 1014.90 1015.43 1016.02 1016.65 1017.29 1017.93 1018.54 1019.11 1019.62 1020.07 1020.45 1020.76 1021.02 1021.23 1021.43 1021.62 1021.81 1022.01 1022.22 1022.44 1022.66 1022.86 1023.04
1011.24 1011.51 1011.79 1012.08 1012.36 1012.62 1012.84 1013.03 1013.19 1013.33 1013.46 1013.61 1013.80 1014.04 1014.34 1014.71 1015.15 1015.65 1016.19 1016.76 1017.34 1017.91 1018.46 1018.96 1019.41 1019.81 1020.16 1020.46 1020.73 1020.97 1021.20 1021.42 1021.64 1021.86 1022.08 1022.28 1022.47 1022.63
1011.35 1011.64 1011.95 1012.27 1012.57 1012.84 1013.07 1013.26 1013.41 1013.54 1013.64 1013.75 1013.87 1014.04 1014.25 1014.52 1014.85 1015.24 1015.69 1016.17 1016.69 1017.21 1017.72 1018.22 1018.68 1019.11 1019.49 1019.84 1020.15 1020.43 1020.70 1020.94 1021.17 1021.39 1021.59 1021.77 1021.92 1022.05
1011.49 1011.80 1012.11 1012.43 1012.73 1013.01 1013.23 1013.42 1013.56 1013.66 1013.73 1013.79 1013.86 1013.95 1014.08 1014.26 1014.49 1014.79 1015.14 1015.55 1015.99 1016.47 1016.96 1017.44 1017.92 1018.37 1018.79 1019.18 1019.53 1019.85 1020.14 1020.39 1020.62 1020.82 1020.99 1021.13 1021.24 1021.33
1011.64 1011.93 1012.24 1012.54 1012.82 1013.06 1013.27 1013.43 1013.54 1013.61 1013.66 1013.68 1013.70 1013.73 1013.80 1013.91 1014.07 1014.29 1014.57 1014.91 1015.31 1015.75 1016.22 1016.70 1017.18 1017.66 1018.10 1018.52 1018.90 1019.24 1019.54 1019.79 1020.00 1020.17 1020.30 1020.40 1020.46 1020.51
1011.76 1012.03 1012.29 1012.55 1012.78 1012.98 1013.15 1013.27 1013.35 1013.40 1013.41 1013.41 1013.40 1013.41 1013.44 1013.51 1013.62 1013.80 1014.04 1014.34 1014.70 1015.11 1015.57 1016.04 1016.53 1017.02 1017.48 1017.91 1018.31 1018.65 1018.94 1019.17 1019.35 1019.48 1019.58 1019.63 1019.65 1019.66
1011.84 1012.06 1012.27 1012.46 1012.63 1012.77 1012.89 1012.96 1013.01 1013.03 1013.04 1013.03 1013.02 1013.02 1013.04 1013.11 1013.22 1013.38 1013.60 1013.89 1014.23 1014.63 1015.07 1015.53 1016.02 1016.49 1016.96 1017.38 1017.76 1018.09 1018.35 1018.56 1018.71 1018.81 1018.86 1018.88 1018.88 1018.86
1011.86 1012.02 1012.16 1012.28 1012.38 1012.46 1012.52 1012.56 1012.58 1012.59 1012.59 1012.59 1012.60 1012.63 1012.68 1012.77 1012.89 1013.07 1013.29 1013.58 1013.92 1014.30 1014.73 1015.18 1015.64 1016.09 1016.53 1016.92 1017.28 1017.57 1017.81 1017.99 1018.11 1018.18 1018.21 1018.21 1018.19 1018.17
1011.83 1011.91 1011.98 1012.03 1012.07 1012.09 1012.10 1012.10 1012.11 1012.12 1012.14 1012.17 1012.22 1012.28 1012.38 1012.51 1012.67 1012.87 1013.12 1013.41 1013.74 1014.11 1014.52 1014.93 1015.35 1015.77 1016.16 1016.52 1016.83 1017.09 1017.30 1017.45 1017.55 1017.61 1017.64 1017.65 1017.64 1017.64
1011.74 1011.76 1011.76 1011.74 1011.72 1011.69 1011.66 1011.65 1011.65 1011.67 1011.72 1011.78 1011.88 1011.99 1012.14 1012.31 1012.52 1012.75 1013.02 1013.31 1013.64 1013.99 1014.35 1014.73 1015.11 1015.47 1015.81 1016.12 1016.40 1016.62 1016.81 1016.95 1017.05 1017.12 1017.17 1017.21 1017.24 1017.28
Thickness
5677 5678 5679 5680 5680 5680 5679 5676 5669 5661 5662 5663 5663 5664 5664 5665 5666 5669 5672 5674 5676 5677 5678 5680 5681 5683 5686 5688 5689 5690 5690 5691 5693 5696 5701 5703 5705 5705
5673 5674 5675 5676 5676 5676 5676 5675 5674 5671 5665 5663 5662 5662 5661 5661 5661 5663 5665 5668 5670 5670 5671 5672 5673 5674 5676 5678 5678 5678 5679 5680 5682 5685 5689 5691 5692 5692
5671 5672 5672 5673 5672 5672 5672 5672 5670 5668 5662 5659 5658 5658 5657 5657 5656 5656 5658 5661 5663 5664 5664 5665 5665 5665 5666 5667 5667 5667 5668 5670 5672 5674 5675 5677 5676 5677
5668 5669 5669 5669 5668 5669 5668 5668 5667 5666 5662 5657 5655 5653 5652 5652 5650 5650 5651 5654 5655 5656 5656 5657 5657 5658 5658 5658 5657 5657 5658 5660 5661 5662 5663 5663 5662 5663
5664 5665 5666 5665 5664 5665 5665 5664 5664 5663 5661 5657 5653 5649 5647 5646 5644 5644 5645 5646 5648 5649 5648 5649 5649 5650 5650 5649 5649 5648 5649 5650 5650 5650 5650 5648 5646 5646
5661 5662 5662 5662 5663 5663 5662 5662 5660 5658 5657 5654 5650 5647 5645 5643 5641 5639 5638 5640 5641 5642 5641 5641 5642 5642 5641 5641 5642 5641 5641 5641 5641 5639 5637 5634 5629 5628
5657 5658 5660 5661 5662 5662 5662 5661 5658 5656 5654 5651 5649 5647 5644 5642 5641 5639 5637 5635 5635 5636 5635 5635 5635 5635 5633 5633 5634 5634 5633 5632 5631 5630 5627 5623 5618 5616
5654 5655 5656 5658 5659 5660 5661 5661 5660 5658 5655 5653 5651 5649 5649 5647 5643 5639 5635 5632 5632 5631 5631 5629 5628 5628 5627 5627 5627 5626 5625 5625 5623 5622 5620 5616 5611 5608
5650 5651 5653 5655 5656 5657 5659 5660 5660 5660 5660 5658 5655 5655 5653 5652 5646 5639 5636 5634 5634 5632 5628 5624 5622 5622 5621 5621 5620 5620 5619 5618 5617 5616 5614 5612 5607 5603
5647 5648 5648 5650 5651 5652 5654 5655 5656 5657 5658 5659 5659 5659 5657 5655 5650 5647 5639 5630 5625 5625 5626 5622 5617 5617 5616 5616 5616 5616 5615 5613 5612 5612 5611 5609 5606 5603
5643 5644 5644 5644 5646 5647 5648 5649 5650 5652 5654 5655 5654 5652 5652 5651 5647 5641 5633 5628 5623 5620 5620 5620 5614 5612 5611 5612 5613 5612 5611 5610 5608 5608 5607 5607 5605 5602
5636 5637 5639 5640 5641 5642 5642 5643 5643 5645 5646 5647 5646 5645 5645 5646 5645 5643 5638 5631 5624 5621 5619 5617 5611 5610 5609 5609 5609 5608 5608 5607 5607 5605 5604 5604 5603 5601
5629 5630 5632 5634 5635 5635 5635 5635 5636 5638 5640 5640 5639 5638 5638 5640 5640 5638 5636 5633 5629 5627 5623 5617 5612 5609 5609 5607 5605 5605 5605 5606 5605 5603 5602 5602 5601 5600
5624 5626 5627 5628 5628 5628 5627 5628 5630 5631 5632 5633 5634 5633 5633 5634 5634 5632 5630 5628 5627 5626 5623 5620 5615 5610 5606 5603 5603 5602 5601 5603 5603 5602 5601 5600 5600 5599
5619 5621 5621 5622 5622 5621 5621 5622 5623 5622 5622 5624 5626 5628 5628 5628 5626 5624 5622 5621 5619 5619 5617 5617 5616 5610 5605 5603 5602 5599 5598 5600 5600 5600 5598 5598 5598 5598
5612 5613 5614 5613 5613 5613 5613 5614 5614 5614 5614 5615 5617 5619 5621 5621 5621 5620 5616 5614 5612 5610 5609 5610 5611 5609 5603 5600 5598 5597 5596 5598 5599 5597 5596 5594 5595 5596
5604 5604 5604 5604 5605 5605 5605 5606 5607 5607 5609 5610 5612 5613 5614 5615 5615 5614 5612 5609 5608 5607 5604 5602 5601 5600 5599 5596 5593 5594 5594 5593 5595 5594 5591 5590 5592 5593
5599 5598 5598 5598 5598 5599 5599 5600 5600 5602 5603 5605 5608 5610 5611 5611 5611 5608 5607 5607 5606 5605 5602 5597 5593 5590 5589 5589 5592 5593 5592 5592 5591 5589 5587 5587 5590 5593
5593 5593 5593 5593 5593 5594 5594 5594 5596 5597 5598 5600 5602 5605 5606 5607 5607 5605 5603 5603 5602 5599 5596 5591 5588 5588 5587 5590 5593 5593 5592 5589 5586 5584 5583 5584 5587 5590
5588 5588 5588 5589 5589 5588 5588 5588 5589 5589 5591 5594 5597 5598 5599 5600 5599 5599 5599 5597 5595 5592 5587 5584 5583 5586 5589 5590 5590 5588 5587 5585 5583 5582 5580 5578 5579 5580
5583 5583 5584 5584 5584 5583 5582 5582 5582 5582 5584 5586 5588 5590 5591 5591 5592 5592 5592 5592 5591 5588 5585 5582 5582 5581 5580 5578 5579 5579 5580 5582 5581 5578 5574 5571 5571 5570
5579 5579 5579 5579 5578 5577 5577 5576 5576 5576 5576 5577 5578 5579 5581 5582 5584 5586 5587 5588 5587 5586 5583 5577 5573 5573 5572 5574 5576 5575 5574 5573 5572 5570 5568 5567 5564 5564
5575 5575 5575 5574 5573 5573 5572 5571 5570 5569 5569 5568 5569 5570 5572 5574 5576 5578 5580 5581 5579 5576 5573 5569 5566 5566 5566 5566 5567 5566 5565 5563 5563 5562 5561 5560 5558 5556